Tracking 23610 objects as of 19-Sep-2021
HD Live streaming from Space Station
objects crossing your sky now

DMSP 5D-2 F13 DEB

Track DMSP 5D-2 F13 DEB now!
10-day predictions


NORAD ID: 40672
Int'l Code: 1995-015FL
Perigee: 811.4 km
Apogee: 815.4 km
Inclination: 98.7 °
Period: 101.0 minutes
Semi major axis: 7184 km
RCS: Unknown
Launch date: March 24, 1995
Source: United States (US)
Launch site: AIR FORCE WESTERN TEST RANGE (AFWTR)

Note: This is SATELLITE DEBRIS
aabbcc
Your satellite tracking list
Your tracking list is empty




NASA's NSSDC Master Catalog

Two Line Element Set (TLE):
1 40672U 95015FL  21260.77948161  .00001895  00000-0  81788-3 0  9991
2 40672  98.7459 279.1701 0002808 353.5173   6.5969 14.25659432336047
Source of the keplerian elements: AFSPC